Time,TemperatureF,DewpointF,PressureIn,WindDirection,WindDirectionDegrees,WindSpeedMPH,WindSpeedGustMPH,Humidity,HourlyPrecipIn,Conditions,Clouds,dailyrainin,SoftwareType,DateUTC
2013-05-02 00:01:00,49.5,41.1,30.16,NW,315,2.9,8.9,73,0.00,,,0.00,WUHU21623XXSP,2013-05-02 05:01:00,
2013-05-02 00:06:00,49.1,40.8,30.16,NNE,22,8.1,9.8,73,0.00,,,0.00,WUHU21623XXSP,2013-05-02 05:06:00,
2013-05-02 00:11:00,48.9,40.6,30.16,NNW,337,10.7,10.7,73,0.00,,,0.00,WUHU21623XXSP,2013-05-02 05:11:00,
2013-05-02 00:16:00,48.9,40.6,30.16,ESE,112,0.0,10.7,73,0.00,,,0.00,WUHU21623XXSP,2013-05-02 05:16:00,
2013-05-02 00:21:00,48.7,40.4,30.16,NNE,22,8.9,9.2,73,0.00,,,0.00,WUHU21623XXSP,2013-05-02 05:21:00,
2013-05-02 00:26:00,48.6,40.2,30.16,NE,45,3.8,9.2,73,0.00,,,0.00,WUHU21623XXSP,2013-05-02 05:26:00,
2013-05-02 00:31:00,48.4,40.0,30.17,NNE,22,4.5,6.9,73,0.00,,,0.00,WUHU21623XXSP,2013-05-02 05:31:00,
2013-05-02 00:36:00,48.4,40.0,30.17,NE,45,0.9,6.3,73,0.00,,,0.00,WUHU21623XXSP,2013-05-02 05:36:00,
2013-05-02 00:41:00,48.2,40.2,30.17,North,0,5.1,7.2,74,0.00,,,0.00,WUHU21623XXSP,2013-05-02 05:41:00,
2013-05-02 00:46:00,48.2,39.9,30.17,NNE,22,8.9,8.9,73,0.00,,,0.00,WUHU21623XXSP,2013-05-02 05:46:00,
2013-05-02 00:51:00,48.0,40.0,30.17,NNE,22,10.3,10.3,74,0.00,,,0.00,WUHU21623XXSP,2013-05-02 05:51:00,
2013-05-02 00:56:00,48.0,40.0,30.17,WNW,292,0.0,10.3,74,0.00,,,0.00,WUHU21623XXSP,2013-05-02 05:56:00,
2013-05-02 01:01:00,47.8,39.9,30.17,SW,225,0.0,4.9,74,0.00,,,0.00,WUHU21623XXSP,2013-05-02 06:01:00,
2013-05-02 01:06:00,47.5,39.7,30.17,ENE,67,2.9,5.1,75,0.00,,,0.00,WUHU21623XXSP,2013-05-02 06:06:00,
2013-05-02 01:11:00,47.5,39.9,30.16,NNE,22,6.5,6.5,75,0.00,,,0.00,WUHU21623XXSP,2013-05-02 06:11:00,
2013-05-02 01:16:00,47.7,40.1,30.17,NE,45,9.2,9.2,75,0.00,,,0.00,WUHU21623XXSP,2013-05-02 06:16:00,
2013-05-02 01:21:00,47.5,39.9,30.17,NNE,22,2.5,9.2,75,0.00,,,0.00,WUHU21623XXSP,2013-05-02 06:21:00,
2013-05-02 01:26:00,47.5,39.9,30.17,NNE,22,6.5,6.5,75,0.00,,,0.00,WUHU21623XXSP,2013-05-02 06:26:00,
2013-05-02 01:31:00,47.5,39.9,30.17,NNW,337,0.0,6.5,75,0.00,,,0.00,WUHU21623XXSP,2013-05-02 06:31:00,
2013-05-02 01:36:00,47.5,39.9,30.18,West,270,0.0,3.4,75,0.00,,,0.00,WUHU21623XXSP,2013-05-02 06:36:00,
2013-05-02 01:41:00,47.5,39.6,30.18,WSW,247,0.0,0.0,74,0.00,,,0.00,WUHU21623XXSP,2013-05-02 06:41:00,
2013-05-02 01:46:00,47.3,39.4,30.18,WNW,292,0.0,4.5,74,0.00,,,0.00,WUHU21623XXSP,2013-05-02 06:46:00,
2013-05-02 01:51:00,47.1,39.6,30.18,NNE,22,5.6,5.6,75,0.00,,,0.00,WUHU21623XXSP,2013-05-02 06:51:00,
2013-05-02 01:56:00,46.9,39.6,30.16,NNE,22,8.1,8.1,75,0.00,,,0.00,WUHU21623XXSP,2013-05-02 06:56:00,
2013-05-02 02:01:00,46.9,39.4,30.16,NNE,22,5.6,8.1,75,0.00,,,0.00,WUHU21623XXSP,2013-05-02 07:01:00,
2013-05-02 02:06:00,46.9,39.6,30.16,NNE,22,5.8,5.8,75,0.00,,,0.00,WUHU21623XXSP,2013-05-02 07:06:00,
2013-05-02 02:11:00,46.9,39.4,30.16,NNE,22,9.8,9.8,75,0.00,,,0.00,WUHU21623XXSP,2013-05-02 07:11:00,
2013-05-02 02:16:00,46.9,39.4,30.17,NNE,22,6.0,9.8,75,0.00,,,0.00,WUHU21623XXSP,2013-05-02 07:16:00,
2013-05-02 02:21:00,46.8,39.3,30.16,NNE,22,5.6,6.0,75,0.00,,,0.00,WUHU21623XXSP,2013-05-02 07:21:00,
2013-05-02 02:26:00,46.6,39.1,30.16,East,90,3.4,6.0,75,0.00,,,0.00,WUHU21623XXSP,2013-05-02 07:26:00,
2013-05-02 02:31:00,46.6,39.1,30.16,North,0,0.0,3.4,75,0.00,,,0.00,WUHU21623XXSP,2013-05-02 07:31:00,
2013-05-02 02:36:00,46.2,38.8,30.17,NNE,22,7.2,7.2,75,0.00,,,0.00,WUHU21623XXSP,2013-05-02 07:36:00,
2013-05-02 02:41:00,46.0,38.9,30.16,NNE,22,6.0,7.2,76,0.00,,,0.00,WUHU21623XXSP,2013-05-02 07:41:00,
2013-05-02 02:46:00,46.2,39.1,30.16,North,0,5.6,7.2,76,0.00,,,0.00,WUHU21623XXSP,2013-05-02 07:46:00,
2013-05-02 02:51:00,46.2,39.1,30.16,NNE,22,8.9,8.9,76,0.00,,,0.00,WUHU21623XXSP,2013-05-02 07:51:00,
2013-05-02 02:56:00,46.2,39.1,30.16,NNE,22,8.9,8.9,76,0.00,,,0.00,WUHU21623XXSP,2013-05-02 07:56:00,
2013-05-02 03:01:00,46.2,39.1,30.16,ENE,67,6.9,8.9,76,0.00,,,0.00,WUHU21623XXSP,2013-05-02 08:01:00,
2013-05-02 03:06:00,47.1,38.6,30.16,NE,45,7.2,14.5,72,0.00,,,0.00,WUHU21623XXSP,2013-05-02 08:06:00,
2013-05-02 03:11:00,47.5,38.5,30.16,NE,45,11.9,17.4,71,0.00,,,0.00,WUHU21623XXSP,2013-05-02 08:11:00,
2013-05-02 03:16:00,47.5,38.5,30.16,ENE,67,18.3,18.3,71,0.00,,,0.00,WUHU21623XXSP,2013-05-02 08:16:00,
2013-05-02 03:21:00,47.3,38.4,30.16,NE,45,5.1,18.3,71,0.00,,,0.00,WUHU21623XXSP,2013-05-02 08:21:00,
2013-05-02 03:26:00,47.1,38.6,30.17,NE,45,10.3,14.3,72,0.00,,,0.00,WUHU21623XXSP,2013-05-02 08:26:00,
2013-05-02 03:31:00,47.1,38.6,30.17,SSW,202,8.7,13.0,72,0.00,,,0.00,WUHU21623XXSP,2013-05-02 08:31:00,
2013-05-02 03:36:00,47.1,38.6,30.18,NNE,22,12.3,12.3,72,0.00,,,0.00,WUHU21623XXSP,2013-05-02 08:36:00,
2013-05-02 03:41:00,46.4,38.6,30.18,NNE,22,6.9,12.3,74,0.00,,,0.00,WUHU21623XXSP,2013-05-02 08:41:00,
2013-05-02 03:46:00,45.7,38.6,30.18,North,0,0.0,6.9,76,0.00,,,0.00,WUHU21623XXSP,2013-05-02 08:46:00,
2013-05-02 03:51:00,45.5,38.4,30.18,NNE,22,2.9,13.2,76,0.00,,,0.00,WUHU21623XXSP,2013-05-02 08:51:00,
2013-05-02 03:56:00,45.1,38.0,30.18,NNE,22,9.2,13.2,76,0.00,,,0.00,WUHU21623XXSP,2013-05-02 08:56:00,
2013-05-02 04:01:00,44.8,38.0,30.18,NNE,22,9.2,9.2,77,0.00,,,0.00,WUHU21623XXSP,2013-05-02 09:01:00,
2013-05-02 04:06:00,44.4,37.6,30.18,NNE,22,10.3,11.6,77,0.00,,,0.00,WUHU21623XXSP,2013-05-02 09:06:00,
2013-05-02 04:11:00,43.9,37.1,30.18,SW,225,0.0,11.6,77,0.00,,,0.00,WUHU21623XXSP,2013-05-02 09:11:00,
2013-05-02 04:16:00,43.7,36.9,30.19,North,0,3.8,10.3,77,0.00,,,0.00,WUHU21623XXSP,2013-05-02 09:16:00,
2013-05-02 04:21:00,43.5,37.1,30.18,NNE,22,9.6,10.5,78,0.00,,,0.00,WUHU21623XXSP,2013-05-02 09:21:00,
2013-05-02 04:26:00,43.3,36.9,30.19,NNE,22,9.6,10.5,78,0.00,,,0.00,WUHU21623XXSP,2013-05-02 09:26:00,
2013-05-02 04:31:00,43.3,36.9,30.19,NNE,22,8.7,9.6,78,0.00,,,0.00,WUHU21623XXSP,2013-05-02 09:31:00,
2013-05-02 04:36:00,43.0,36.6,30.19,NNW,337,6.3,9.6,78,0.00,,,0.00,WUHU21623XXSP,2013-05-02 09:36:00,
2013-05-02 04:41:00,42.6,36.2,30.18,NE,45,8.5,8.5,78,0.00,,,0.00,WUHU21623XXSP,2013-05-02 09:41:00,
2013-05-02 04:46:00,42.6,36.2,30.18,NE,45,12.3,12.3,78,0.00,,,0.00,WUHU21623XXSP,2013-05-02 09:46:00,
2013-05-02 04:51:00,42.6,36.2,30.18,North,0,2.9,12.3,78,0.00,,,0.00,WUHU21623XXSP,2013-05-02 09:51:00,
2013-05-02 04:56:00,42.6,36.2,30.18,ENE,67,6.7,12.8,78,0.00,,,0.00,WUHU21623XXSP,2013-05-02 09:56:00,
2013-05-02 05:01:00,42.6,36.2,30.18,North,0,5.4,12.8,78,0.00,,,0.00,WUHU21623XXSP,2013-05-02 10:01:00,
2013-05-02 05:06:00,42.6,36.2,30.19,NE,45,7.2,9.2,78,0.00,,,0.00,WUHU21623XXSP,2013-05-02 10:06:00,
2013-05-02 05:11:00,42.4,36.4,30.20,NNE,22,8.7,9.2,79,0.00,,,0.00,WUHU21623XXSP,2013-05-02 10:11:00,
2013-05-02 05:16:00,42.4,36.0,30.20,NNE,22,6.0,9.2,78,0.00,,,0.00,WUHU21623XXSP,2013-05-02 10:16:00,
2013-05-02 05:21:00,42.4,36.4,30.20,WNW,292,1.8,6.0,79,0.00,,,0.00,WUHU21623XXSP,2013-05-02 10:21:00,
2013-05-02 05:26:00,42.4,36.4,30.20,NNE,22,5.1,5.1,79,0.00,,,0.00,WUHU21623XXSP,2013-05-02 10:26:00,
2013-05-02 05:31:00,42.4,36.4,30.20,NE,45,8.9,8.9,79,0.00,,,0.00,WUHU21623XXSP,2013-05-02 10:31:00,
2013-05-02 05:36:00,42.4,36.4,30.20,NNE,22,4.0,8.9,79,0.00,,,0.00,WUHU21623XXSP,2013-05-02 10:36:00,
2013-05-02 05:41:00,42.4,36.4,30.20,North,0,9.8,9.8,79,0.00,,,0.00,WUHU21623XXSP,2013-05-02 10:41:00,
2013-05-02 05:46:00,42.4,36.4,30.20,NNE,22,13.0,14.5,79,0.00,,,0.00,WUHU21623XXSP,2013-05-02 10:46:00,
2013-05-02 05:51:00,42.4,36.4,30.20,NE,45,6.7,14.5,79,0.00,,,0.00,WUHU21623XXSP,2013-05-02 10:51:00,
2013-05-02 05:56:00,42.3,36.2,30.20,ENE,67,5.8,8.1,79,0.00,,,0.00,WUHU21623XXSP,2013-05-02 10:56:00,
2013-05-02 06:01:00,42.1,36.0,30.20,NNE,22,8.5,8.5,79,0.00,,,0.00,WUHU21623XXSP,2013-05-02 11:01:00,
2013-05-02 06:06:00,42.1,36.0,30.20,NE,45,8.9,8.9,79,0.00,,,0.00,WUHU21623XXSP,2013-05-02 11:06:00,
2013-05-02 06:11:00,42.4,36.4,30.20,NNE,22,4.7,17.4,79,0.00,,,0.00,WUHU21623XXSP,2013-05-02 11:11:00,
2013-05-02 06:15:00,42.1,36.0,30.21,NE,45,7.4,17.4,79,0.00,,,0.00,WUHU21623XXSP,2013-05-02 11:15:00,
2013-05-02 06:20:00,42.4,36.0,30.21,NNE,22,8.9,11.2,78,0.00,,,0.00,WUHU21623XXSP,2013-05-02 11:20:00,
2013-05-02 06:25:00,42.4,35.4,30.20,NNE,22,9.6,14.5,76,0.00,,,0.00,WUHU21623XXSP,2013-05-02 11:25:00,
2013-05-02 06:30:00,42.4,35.1,30.20,NE,45,13.4,15.4,75,0.00,,,0.00,WUHU21623XXSP,2013-05-02 11:30:00,
2013-05-02 06:35:00,42.6,35.2,30.20,NNE,22,6.9,15.4,75,0.00,,,0.00,WUHU21623XXSP,2013-05-02 11:35:00,
2013-05-02 06:40:00,42.6,34.9,30.21,NNE,22,13.0,14.5,74,0.00,,,0.00,WUHU21623XXSP,2013-05-02 11:40:00,
2013-05-02 06:45:00,42.6,35.2,30.21,NNE,22,7.8,14.5,75,0.00,,,0.00,WUHU21623XXSP,2013-05-02 11:45:00,
2013-05-02 06:50:00,43.0,35.3,30.21,ENE,67,9.4,9.4,74,0.00,,,0.00,WUHU21623XXSP,2013-05-02 11:50:00,
2013-05-02 06:55:00,42.6,35.6,30.21,NE,45,10.1,14.1,76,0.00,,,0.00,WUHU21623XXSP,2013-05-02 11:55:00,
2013-05-02 07:00:00,42.4,35.4,30.21,North,0,20.8,20.8,76,0.00,,,0.00,WUHU21623XXSP,2013-05-02 12:00:00,
2013-05-02 07:05:00,42.1,35.0,30.22,NNE,22,11.4,20.8,76,0.00,,,0.00,WUHU21623XXSP,2013-05-02 12:05:00,
2013-05-02 07:10:00,42.6,35.6,30.22,NNE,22,11.9,12.8,76,0.00,,,0.00,WUHU21623XXSP,2013-05-02 12:10:00,
2013-05-02 07:15:00,43.3,35.7,30.22,NNE,22,3.8,11.9,76,0.00,,,0.00,WUHU21623XXSP,2013-05-02 12:15:00,
2013-05-02 07:20:00,43.2,35.4,30.22,NNE,22,13.0,15.7,74,0.00,,,0.00,WUHU21623XXSP,2013-05-02 12:20:00,
2013-05-02 07:25:00,43.2,35.8,30.22,North,0,6.5,15.7,74,0.00,,,0.00,WUHU21623XXSP,2013-05-02 12:25:00,
2013-05-02 07:30:00,43.7,35.6,30.22,NE,45,3.6,18.3,73,0.00,,,0.00,WUHU21623XXSP,2013-05-02 12:30:00,
2013-05-02 07:35:00,43.7,35.3,30.23,NE,45,13.6,18.3,72,0.00,,,0.00,WUHU21623XXSP,2013-05-02 12:35:00,
2013-05-02 07:40:00,44.1,35.6,30.22,NNE,22,6.7,14.5,73,0.00,,,0.00,WUHU21623XXSP,2013-05-02 12:40:00,
2013-05-02 07:45:00,44.4,35.9,30.22,NNE,22,13.2,14.5,72,0.00,,,0.00,WUHU21623XXSP,2013-05-02 12:45:00,
2013-05-02 07:50:00,44.6,35.9,30.22,NNE,22,10.5,13.6,72,0.00,,,0.00,WUHU21623XXSP,2013-05-02 12:50:00,
2013-05-02 07:55:00,45.0,36.1,30.22,NW,315,15.4,15.4,71,0.00,,,0.00,WUHU21623XXSP,2013-05-02 12:55:00,
2013-05-02 08:00:00,44.8,36.3,30.23,NE,45,15.7,15.7,72,0.00,,,0.00,WUHU21623XXSP,2013-05-02 13:00:00,
2013-05-02 08:05:00,45.7,36.8,30.23,NE,45,9.4,15.7,71,0.00,,,0.00,WUHU21623XXSP,2013-05-02 13:05:00,
2013-05-02 08:10:00,46.0,36.5,30.23,NNE,22,13.0,13.0,69,0.00,,,0.00,WUHU21623XXSP,2013-05-02 13:10:00,
2013-05-02 08:15:00,46.4,37.2,30.22,NNE,22,16.8,16.8,70,0.00,,,0.00,WUHU21623XXSP,2013-05-02 13:15:00,
2013-05-02 08:20:00,46.6,37.0,30.22,NNE,22,16.3,16.8,69,0.00,,,0.00,WUHU21623XXSP,2013-05-02 13:20:00,
2013-05-02 08:25:00,46.6,37.4,30.23,NNE,22,14.8,16.3,70,0.00,,,0.00,WUHU21623XXSP,2013-05-02 13:25:00,
2013-05-02 08:30:00,46.9,37.7,30.24,NNE,22,8.9,18.1,70,0.00,,,0.00,WUHU21623XXSP,2013-05-02 13:30:00,
2013-05-02 08:35:00,47.1,37.1,30.24,NNE,22,4.0,18.1,68,0.00,,,0.00,WUHU21623XXSP,2013-05-02 13:35:00,
2013-05-02 08:40:00,47.1,37.1,30.24,North,0,3.8,8.9,68,0.00,,,0.00,WUHU21623XXSP,2013-05-02 13:40:00,
2013-05-02 08:45:00,46.6,36.6,30.25,South,180,1.8,6.3,68,0.00,,,0.00,WUHU21623XXSP,2013-05-02 13:45:00,
2013-05-02 08:50:00,45.7,36.5,30.26,NE,45,4.0,5.8,70,0.00,,,0.00,WUHU21623XXSP,2013-05-02 13:50:00,
2013-05-02 08:55:00,45.7,36.8,30.25,WSW,247,0.0,7.8,71,0.00,,,0.00,WUHU21623XXSP,2013-05-02 13:55:00,
2013-05-02 09:00:00,45.7,36.8,30.26,NE,45,2.5,8.5,71,0.00,,,0.00,WUHU21623XXSP,2013-05-02 14:00:00,
2013-05-02 09:05:00,46.0,37.2,30.26,NNE,22,2.5,8.5,71,0.00,,,0.00,WUHU21623XXSP,2013-05-02 14:05:00,
2013-05-02 09:10:00,45.7,36.8,30.25,NE,45,19.2,19.2,71,0.00,,,0.00,WUHU21623XXSP,2013-05-02 14:10:00,
2013-05-02 09:15:00,46.6,36.9,30.25,NW,315,4.7,19.2,71,0.00,,,0.00,WUHU21623XXSP,2013-05-02 14:15:00,
2013-05-02 09:20:00,47.5,38.2,30.24,ENE,67,2.9,9.4,70,0.00,,,0.00,WUHU21623XXSP,2013-05-02 14:20:00,
2013-05-02 09:25:00,47.8,38.1,30.24,NNW,337,3.4,13.0,69,0.00,,,0.00,WUHU21623XXSP,2013-05-02 14:25:00,
2013-05-02 09:30:00,47.7,36.8,30.24,NNE,22,13.0,13.0,66,0.00,,,0.00,WUHU21623XXSP,2013-05-02 14:30:00,
2013-05-02 09:35:00,46.9,37.3,30.23,NW,315,8.9,13.0,69,0.00,,,0.00,WUHU21623XXSP,2013-05-02 14:35:00,
2013-05-02 09:40:00,47.3,37.3,30.23,NNE,22,10.5,14.3,68,0.00,,,0.00,WUHU21623XXSP,2013-05-02 14:40:00,
2013-05-02 09:45:00,47.8,38.1,30.24,NE,45,14.8,14.8,69,0.00,,,0.00,WUHU21623XXSP,2013-05-02 14:45:00,
2013-05-02 09:50:00,48.9,38.0,30.24,NE,45,12.8,14.8,66,0.00,,,0.00,WUHU21623XXSP,2013-05-02 14:50:00,
2013-05-02 09:55:00,50.2,39.2,30.23,NNE,22,5.6,12.8,66,0.00,,,0.00,WUHU21623XXSP,2013-05-02 14:55:00,
2013-05-02 10:00:00,50.4,38.5,30.22,NNE,22,5.6,5.8,66,0.00,,,0.00,WUHU21623XXSP,2013-05-02 15:00:00,
2013-05-02 10:05:00,49.6,38.3,30.22,North,0,8.9,12.3,65,0.00,,,0.00,WUHU21623XXSP,2013-05-02 15:05:00,
2013-05-02 10:10:00,50.4,39.4,30.22,NE,45,9.6,12.3,66,0.00,,,0.00,WUHU21623XXSP,2013-05-02 15:10:00,
2013-05-02 10:15:00,49.6,37.7,30.22,NE,45,0.7,9.6,64,0.00,,,0.00,WUHU21623XXSP,2013-05-02 15:15:00,
2013-05-02 10:20:00,50.2,39.2,30.22,ENE,67,9.8,9.8,66,0.00,,,0.00,WUHU21623XXSP,2013-05-02 15:20:00,
2013-05-02 10:25:00,51.4,39.2,30.22,NNE,22,8.5,14.8,63,0.00,,,0.00,WUHU21623XXSP,2013-05-02 15:25:00,
2013-05-02 10:30:00,50.2,37.6,30.22,NNW,337,5.1,14.8,62,0.00,,,0.00,WUHU21623XXSP,2013-05-02 15:30:00,
2013-05-02 10:35:00,49.1,37.2,30.22,NNW,337,5.1,5.1,65,0.00,,,0.00,WUHU21623XXSP,2013-05-02 15:35:00,
2013-05-02 10:40:00,48.2,36.6,30.22,NNE,22,11.9,16.3,64,0.00,,,0.00,WUHU21623XXSP,2013-05-02 15:40:00,
2013-05-02 10:45:00,48.4,37.5,30.23,NNE,22,8.9,16.3,66,0.00,,,0.00,WUHU21623XXSP,2013-05-02 15:45:00,
2013-05-02 10:50:00,48.7,38.2,30.23,NE,45,7.6,11.4,66,0.00,,,0.00,WUHU21623XXSP,2013-05-02 15:50:00,
2013-05-02 10:55:00,48.9,37.6,30.22,SW,225,0.0,7.6,65,0.00,,,0.00,WUHU21623XXSP,2013-05-02 15:55:00,
2013-05-02 11:00:00,48.6,37.3,30.22,NNE,22,11.2,11.2,65,0.00,,,0.00,WUHU21623XXSP,2013-05-02 16:00:00,
2013-05-02 11:05:00,49.6,38.7,30.22,NNE,22,14.8,14.8,66,0.00,,,0.00,WUHU21623XXSP,2013-05-02 16:05:00,
2013-05-02 11:10:00,48.7,37.2,30.22,NNE,22,9.6,14.8,65,0.00,,,0.00,WUHU21623XXSP,2013-05-02 16:10:00,
2013-05-02 11:15:00,48.7,37.7,30.23,NNE,22,9.6,9.6,66,0.00,,,0.00,WUHU21623XXSP,2013-05-02 16:15:00,
2013-05-02 11:20:00,49.1,38.4,30.23,East,90,3.6,9.6,66,0.00,,,0.00,WUHU21623XXSP,2013-05-02 16:20:00,
2013-05-02 11:25:00,49.8,38.5,30.22,NE,45,11.4,11.4,65,0.00,,,0.00,WUHU21623XXSP,2013-05-02 16:25:00,
2013-05-02 11:30:00,50.4,39.0,30.21,NNE,22,10.5,14.5,65,0.00,,,0.00,WUHU21623XXSP,2013-05-02 16:30:00,
2013-05-02 11:35:00,50.4,38.6,30.22,NE,45,4.0,14.5,64,0.00,,,0.00,WUHU21623XXSP,2013-05-02 16:35:00,
2013-05-02 11:40:00,49.1,37.6,30.23,West,270,0.0,10.5,64,0.00,,,0.00,WUHU21623XXSP,2013-05-02 16:40:00,
2013-05-02 11:45:00,48.6,37.7,30.22,NE,45,13.6,13.6,66,0.00,,,0.00,WUHU21623XXSP,2013-05-02 16:45:00,
2013-05-02 11:50:00,48.4,37.5,30.21,NE,45,13.6,13.6,66,0.00,,,0.00,WUHU21623XXSP,2013-05-02 16:50:00,
2013-05-02 11:55:00,50.7,40.5,30.21,NE,45,3.8,13.6,68,0.00,,,0.00,WUHU21623XXSP,2013-05-02 16:55:00,
2013-05-02 12:00:00,51.4,39.2,30.21,NE,45,11.4,11.4,63,0.00,,,0.00,WUHU21623XXSP,2013-05-02 17:00:00,
2013-05-02 12:05:00,52.3,40.9,30.21,NW,315,2.5,11.4,65,0.00,,,0.00,WUHU21623XXSP,2013-05-02 17:05:00,
2013-05-02 12:10:00,52.9,40.2,30.21,NNE,22,15.9,15.9,62,0.00,,,0.00,WUHU21623XXSP,2013-05-02 17:10:00,
2013-05-02 12:15:00,52.9,39.8,30.21,NNE,22,15.0,15.9,63,0.00,,,0.00,WUHU21623XXSP,2013-05-02 17:15:00,
2013-05-02 12:20:00,53.1,40.7,30.20,East,90,0.0,15.0,63,0.00,,,0.00,WUHU21623XXSP,2013-05-02 17:20:00,
2013-05-02 12:25:00,52.7,39.2,30.20,NE,45,15.4,15.4,60,0.00,,,0.00,WUHU21623XXSP,2013-05-02 17:25:00,
2013-05-02 12:30:00,51.8,39.1,30.20,NE,45,3.4,15.4,62,0.00,,,0.00,WUHU21623XXSP,2013-05-02 17:30:00,
2013-05-02 12:35:00,53.8,43.0,30.20,ENE,67,14.3,14.3,67,0.00,,,0.00,WUHU21623XXSP,2013-05-02 17:35:00,
2013-05-02 12:40:00,53.4,40.3,30.20,NNE,22,12.1,14.3,62,0.00,,,0.00,WUHU21623XXSP,2013-05-02 17:40:00,
2013-05-02 12:45:00,53.8,40.7,30.20,NNE,22,8.5,12.1,62,0.00,,,0.00,WUHU21623XXSP,2013-05-02 17:45:00,
2013-05-02 12:50:00,54.1,41.4,30.20,NNE,22,8.5,8.9,61,0.00,,,0.00,WUHU21623XXSP,2013-05-02 17:50:00,
2013-05-02 12:55:00,54.3,40.7,30.19,NE,45,14.3,14.3,60,0.00,,,0.00,WUHU21623XXSP,2013-05-02 17:55:00,
2013-05-02 13:00:00,54.3,40.7,30.18,NNE,22,11.9,14.3,60,0.00,,,0.00,WUHU21623XXSP,2013-05-02 18:00:00,
2013-05-02 13:05:00,54.7,41.5,30.18,NNE,22,15.4,15.4,61,0.00,,,0.00,WUHU21623XXSP,2013-05-02 18:05:00,
2013-05-02 13:10:00,54.9,42.4,30.18,WSW,247,4.5,21.5,61,0.00,,,0.00,WUHU21623XXSP,2013-05-02 18:10:00,
2013-05-02 13:15:00,54.7,41.5,30.19,NNE,22,5.1,21.5,61,0.00,,,0.00,WUHU21623XXSP,2013-05-02 18:15:00,
2013-05-02 13:20:00,54.9,41.6,30.20,NNE,22,9.2,11.2,61,0.00,,,0.00,WUHU21623XXSP,2013-05-02 18:20:00,
2013-05-02 13:25:00,54.7,41.5,30.20,North,0,9.4,9.4,62,0.00,,,0.00,WUHU21623XXSP,2013-05-02 18:25:00,
2013-05-02 13:30:00,56.1,42.8,30.19,NE,45,12.1,12.1,61,0.00,,,0.00,WUHU21623XXSP,2013-05-02 18:30:00,
2013-05-02 13:35:00,55.2,41.6,30.19,NE,45,16.6,16.6,60,0.00,,,0.00,WUHU21623XXSP,2013-05-02 18:35:00,
2013-05-02 13:40:00,54.1,40.1,30.19,NE,45,6.9,16.6,62,0.00,,,0.00,WUHU21623XXSP,2013-05-02 18:40:00,
2013-05-02 13:45:00,54.5,41.7,30.19,ENE,67,0.0,16.6,62,0.00,,,0.00,WUHU21623XXSP,2013-05-02 18:45:00,
2013-05-02 13:50:00,54.3,42.3,30.19,NE,45,10.5,10.5,61,0.00,,,0.00,WUHU21623XXSP,2013-05-02 18:50:00,
2013-05-02 13:55:00,54.1,41.8,30.19,NNE,22,11.2,11.2,63,0.00,,,0.00,WUHU21623XXSP,2013-05-02 18:55:00,
2013-05-02 14:00:00,53.8,41.1,30.19,NNW,337,3.4,11.2,62,0.00,,,0.00,WUHU21623XXSP,2013-05-02 19:00:00,
2013-05-02 14:05:00,54.0,41.2,30.19,NE,45,4.5,9.8,62,0.00,,,0.00,WUHU21623XXSP,2013-05-02 19:05:00,
2013-05-02 14:10:00,54.0,41.6,30.19,North,0,1.3,8.3,63,0.00,,,0.00,WUHU21623XXSP,2013-05-02 19:10:00,
2013-05-02 14:15:00,54.3,42.0,30.19,NE,45,8.3,12.5,63,0.00,,,0.00,WUHU21623XXSP,2013-05-02 19:15:00,
2013-05-02 14:20:00,54.0,41.5,30.19,NE,45,8.3,12.5,60,0.00,,,0.00,WUHU21623XXSP,2013-05-02 19:20:00,
2013-05-02 14:25:00,54.3,42.0,30.19,NE,45,4.0,10.1,63,0.00,,,0.00,WUHU21623XXSP,2013-05-02 19:25:00,
2013-05-02 14:30:00,54.7,42.3,30.19,NNE,22,13.0,13.0,63,0.00,,,0.00,WUHU21623XXSP,2013-05-02 19:30:00,
2013-05-02 14:35:00,54.3,40.7,30.19,West,270,2.5,13.0,60,0.00,,,0.00,WUHU21623XXSP,2013-05-02 19:35:00,
2013-05-02 14:40:00,54.7,41.5,30.18,North,0,4.3,13.0,61,0.00,,,0.00,WUHU21623XXSP,2013-05-02 19:40:00,
2013-05-02 14:45:00,54.1,40.1,30.18,ESE,112,0.0,5.6,59,0.00,,,0.00,WUHU21623XXSP,2013-05-02 19:45:00,
2013-05-02 14:50:00,53.4,39.9,30.18,WNW,292,4.5,5.6,60,0.00,,,0.00,WUHU21623XXSP,2013-05-02 19:50:00,
2013-05-02 14:55:00,52.7,39.2,30.18,SE,135,1.6,4.9,60,0.00,,,0.00,WUHU21623XXSP,2013-05-02 19:55:00,
2013-05-02 15:00:00,52.0,39.3,30.18,ENE,67,2.9,4.9,62,0.00,,,0.00,WUHU21623XXSP,2013-05-02 20:00:00,
2013-05-02 15:05:00,51.4,38.9,30.19,ENE,67,2.9,2.9,63,0.00,,,0.00,WUHU21623XXSP,2013-05-02 20:05:00,
2013-05-02 15:10:00,50.7,38.5,30.19,NW,315,6.7,6.7,63,0.00,,,0.00,WUHU21623XXSP,2013-05-02 20:10:00,
2013-05-02 15:15:00,50.2,38.2,30.19,North,0,1.8,6.7,63,0.00,,,0.00,WUHU21623XXSP,2013-05-02 20:15:00,
2013-05-02 15:20:00,50.2,38.8,30.19,WSW,247,0.0,14.5,64,0.00,,,0.00,WUHU21623XXSP,2013-05-02 20:20:00,
2013-05-02 15:25:00,50.4,39.0,30.18,WSW,247,0.0,14.5,65,0.00,,,0.00,WUHU21623XXSP,2013-05-02 20:25:00,
2013-05-02 15:30:00,50.7,39.3,30.18,NNE,22,6.7,6.7,65,0.00,,,0.00,WUHU21623XXSP,2013-05-02 20:30:00,
2013-05-02 15:35:00,50.7,39.3,30.18,WNW,292,2.0,8.7,65,0.00,,,0.00,WUHU21623XXSP,2013-05-02 20:35:00,
2013-05-02 15:40:00,50.7,39.3,30.18,WNW,292,1.6,8.7,65,0.00,,,0.00,WUHU21623XXSP,2013-05-02 20:40:00,
2013-05-02 15:45:00,50.0,38.7,30.18,WNW,292,4.7,5.1,65,0.00,,,0.00,WUHU21623XXSP,2013-05-02 20:45:00,
2013-05-02 15:50:00,49.3,38.0,30.18,North,0,3.6,5.1,65,0.00,,,0.00,WUHU21623XXSP,2013-05-02 20:50:00,
2013-05-02 15:55:00,48.6,38.0,30.17,West,270,2.9,4.7,67,0.00,,,0.00,WUHU21623XXSP,2013-05-02 20:55:00,
2013-05-02 16:00:00,48.6,38.0,30.17,West,270,7.4,7.4,67,0.00,,,0.00,WUHU21623XXSP,2013-05-02 21:00:00,
2013-05-02 16:05:00,47.8,37.4,30.17,North,0,7.4,7.4,67,0.00,,,0.00,WUHU21623XXSP,2013-05-02 21:05:00,
2013-05-02 16:10:00,46.8,37.1,30.16,NNE,22,0.0,11.4,69,0.00,,,0.00,WUHU21623XXSP,2013-05-02 21:10:00,
2013-05-02 16:15:00,46.2,36.6,30.17,ESE,112,0.0,11.4,69,0.00,,,0.00,WUHU21623XXSP,2013-05-02 21:15:00,
2013-05-02 16:20:00,45.7,36.5,30.17,ENE,67,5.4,8.3,70,0.00,,,0.00,WUHU21623XXSP,2013-05-02 21:20:00,
2013-05-02 16:25:00,45.1,36.5,30.18,NNW,337,3.4,8.3,71,0.00,,,0.00,WUHU21623XXSP,2013-05-02 21:25:00,
2013-05-02 16:30:00,45.1,36.6,30.18,NNE,22,9.8,9.8,72,0.00,,,0.00,WUHU21623XXSP,2013-05-02 21:30:00,
2013-05-02 16:35:00,44.8,36.3,30.20,North,0,2.0,9.8,72,0.00,,,0.00,WUHU21623XXSP,2013-05-02 21:35:00,
2013-05-02 16:40:00,44.2,37.5,30.17,NNE,22,6.3,6.3,77,0.00,,,0.00,WUHU21623XXSP,2013-05-02 21:40:00,
2013-05-02 16:45:00,43.3,36.9,30.17,WNW,292,6.3,6.3,78,0.02,,,0.02,WUHU21623XXSP,2013-05-02 21:45:00,
2013-05-02 16:50:00,43.0,37.2,30.18,North,0,2.9,6.3,80,0.06,,,0.04,WUHU21623XXSP,2013-05-02 21:50:00,
2013-05-02 16:55:00,43.0,37.5,30.18,NW,315,2.5,5.8,81,0.06,,,0.06,WUHU21623XXSP,2013-05-02 21:55:00,
2013-05-02 17:00:00,43.0,37.5,30.18,NE,45,3.4,5.1,81,0.08,,,0.08,WUHU21623XXSP,2013-05-02 22:00:00,
2013-05-02 17:05:00,42.8,37.7,30.17,WSW,247,0.0,3.4,82,0.08,,,0.08,WUHU21623XXSP,2013-05-02 22:05:00,
2013-05-02 17:10:00,42.6,37.5,30.18,SW,225,0.0,4.0,82,0.08,,,0.08,WUHU21623XXSP,2013-05-02 22:10:00,
2013-05-02 17:15:00,42.4,37.3,30.18,North,0,4.0,4.0,82,0.08,,,0.08,WUHU21623XXSP,2013-05-02 22:15:00,
2013-05-02 17:20:00,42.4,37.6,30.17,NNE,22,3.8,4.3,83,0.08,,,0.08,WUHU21623XXSP,2013-05-02 22:20:00,
2013-05-02 17:25:00,42.1,37.5,30.17,North,0,3.1,4.3,84,0.08,,,0.08,WUHU21623XXSP,2013-05-02 22:25:00,
2013-05-02 17:30:00,41.9,37.4,30.18,NNW,337,0.0,5.8,84,0.08,,,0.08,WUHU21623XXSP,2013-05-02 22:30:00,
2013-05-02 17:35:00,41.9,37.4,30.18,NW,315,0.7,5.8,84,0.08,,,0.08,WUHU21623XXSP,2013-05-02 22:35:00,
2013-05-02 17:40:00,41.7,37.2,30.19,South,180,0.0,2.0,84,0.06,,,0.08,WUHU21623XXSP,2013-05-02 22:40:00,
2013-05-02 17:45:00,41.5,36.7,30.19,NE,45,6.7,6.7,83,0.04,,,0.08,WUHU21623XXSP,2013-05-02 22:45:00,
2013-05-02 17:50:00,41.5,36.7,30.19,ESE,112,0.0,6.7,83,0.02,,,0.08,WUHU21623XXSP,2013-05-02 22:50:00,
2013-05-02 17:55:00,41.2,36.3,30.19,North,0,0.0,6.9,83,0.02,,,0.08,WUHU21623XXSP,2013-05-02 22:55:00,
2013-05-02 18:00:00,40.8,36.0,30.19,NNE,22,0.0,6.9,83,0.00,,,0.08,WUHU21623XXSP,2013-05-02 23:00:00,
2013-05-02 18:05:00,40.8,36.0,30.20,NW,315,2.0,2.0,83,0.00,,,0.08,WUHU21623XXSP,2013-05-02 23:05:00,
2013-05-02 18:10:00,40.8,36.3,30.20,NW,315,2.9,3.8,84,0.00,,,0.08,WUHU21623XXSP,2013-05-02 23:10:00,
2013-05-02 18:15:00,40.6,36.1,30.19,SE,135,0.0,3.8,84,0.00,,,0.08,WUHU21623XXSP,2013-05-02 23:15:00,
2013-05-02 18:20:00,40.6,36.1,30.20,NNE,22,6.0,6.0,84,0.00,,,0.08,WUHU21623XXSP,2013-05-02 23:20:00,
2013-05-02 18:25:00,40.6,36.1,30.20,North,0,1.3,6.0,84,0.00,,,0.08,WUHU21623XXSP,2013-05-02 23:25:00,
2013-05-02 18:30:00,40.5,35.9,30.20,NNE,22,0.0,4.9,84,0.00,,,0.08,WUHU21623XXSP,2013-05-02 23:30:00,
2013-05-02 18:35:00,40.5,35.9,30.20,NNW,337,0.0,2.2,84,0.00,,,0.08,WUHU21623XXSP,2013-05-02 23:35:00,
2013-05-02 18:40:00,40.5,36.2,30.19,NNE,22,4.0,4.0,85,0.00,,,0.08,WUHU21623XXSP,2013-05-02 23:40:00,
2013-05-02 18:45:00,40.3,36.1,30.20,North,0,2.0,4.0,85,0.00,,,0.08,WUHU21623XXSP,2013-05-02 23:45:00,
2013-05-02 18:50:00,40.1,35.9,30.20,WNW,292,0.0,3.4,85,0.00,,,0.08,WUHU21623XXSP,2013-05-02 23:50:00,
2013-05-02 18:55:00,39.9,35.7,30.20,NNW,337,0.0,12.5,85,0.00,,,0.08,WUHU21623XXSP,2013-05-02 23:55:00,
2013-05-02 19:00:00,39.9,35.4,30.20,WSW,247,0.0,12.5,84,0.00,,,0.08,WUHU21623XXSP,2013-05-03 00:00:00,
2013-05-02 19:05:00,39.9,35.4,30.20,North,0,7.2,7.2,84,0.00,,,0.08,WUHU21623XXSP,2013-05-03 00:05:00,
2013-05-02 19:10:00,39.9,35.7,30.21,North,0,0.0,8.5,85,0.00,,,0.08,WUHU21623XXSP,2013-05-03 00:10:00,
2013-05-02 19:15:00,39.9,35.7,30.20,NNE,22,4.5,8.5,85,0.00,,,0.08,WUHU21623XXSP,2013-05-03 00:15:00,
2013-05-02 19:20:00,39.7,35.6,30.20,NNE,22,5.8,5.8,85,0.00,,,0.08,WUHU21623XXSP,2013-05-03 00:20:00,
2013-05-02 19:25:00,39.6,35.7,30.20,WNW,292,0.0,5.8,86,0.00,,,0.08,WUHU21623XXSP,2013-05-03 00:25:00,
2013-05-02 19:30:00,39.6,35.7,30.20,NNE,22,0.0,5.6,86,0.00,,,0.08,WUHU21623XXSP,2013-05-03 00:30:00,
2013-05-02 19:35:00,39.4,35.5,30.19,West,270,1.8,3.1,86,0.00,,,0.08,WUHU21623XXSP,2013-05-03 00:35:00,
2013-05-02 19:40:00,39.4,35.5,30.19,NW,315,0.0,10.3,86,0.00,,,0.08,WUHU21623XXSP,2013-05-03 00:40:00,
2013-05-02 19:45:00,39.4,35.5,30.18,NNW,337,0.0,10.3,86,0.00,,,0.08,WUHU21623XXSP,2013-05-03 00:45:00,
2013-05-02 19:50:00,39.4,35.8,30.19,NNW,337,1.6,8.1,87,0.00,,,0.08,WUHU21623XXSP,2013-05-03 00:50:00,
2013-05-02 19:55:00,39.4,35.8,30.18,WNW,292,1.3,8.9,87,0.00,,,0.08,WUHU21623XXSP,2013-05-03 00:55:00,
2013-05-02 20:00:00,39.4,35.8,30.18,North,0,5.1,8.9,87,0.00,,,0.08,WUHU21623XXSP,2013-05-03 01:00:00,
2013-05-02 20:05:00,39.4,35.8,30.18,NE,45,6.7,6.7,87,0.00,,,0.08,WUHU21623XXSP,2013-05-03 01:05:00,
2013-05-02 20:10:00,39.0,35.5,30.18,NW,315,1.6,6.7,87,0.00,,,0.08,WUHU21623XXSP,2013-05-03 01:10:00,
2013-05-02 20:15:00,39.0,35.5,30.19,NNE,22,0.7,6.7,87,0.00,,,0.08,WUHU21623XXSP,2013-05-03 01:15:00,
2013-05-02 20:20:00,39.0,35.5,30.19,NNE,22,0.0,7.6,87,0.00,,,0.08,WUHU21623XXSP,2013-05-03 01:20:00,
2013-05-02 20:25:00,39.0,35.5,30.19,NW,315,5.8,7.6,87,0.00,,,0.08,WUHU21623XXSP,2013-05-03 01:25:00,
2013-05-02 20:30:00,38.8,35.3,30.19,NW,315,0.0,10.7,87,0.00,,,0.08,WUHU21623XXSP,2013-05-03 01:30:00,
2013-05-02 20:35:00,38.8,35.3,30.19,NNE,22,3.8,10.7,87,0.00,,,0.08,WUHU21623XXSP,2013-05-03 01:35:00,
2013-05-02 20:40:00,38.8,35.3,30.20,West,270,0.0,3.8,87,0.00,,,0.08,WUHU21623XXSP,2013-05-03 01:40:00,
2013-05-02 20:45:00,38.8,35.3,30.20,North,0,2.5,2.5,87,0.00,,,0.08,WUHU21623XXSP,2013-05-03 01:45:00,
2013-05-02 20:50:00,38.8,35.3,30.20,North,0,6.9,6.9,87,0.00,,,0.08,WUHU21623XXSP,2013-05-03 01:50:00,
2013-05-02 20:55:00,38.8,35.3,30.21,NE,45,9.6,9.6,87,0.00,,,0.08,WUHU21623XXSP,2013-05-03 01:55:00,
2013-05-02 21:00:00,38.7,35.1,30.20,NNW,337,0.0,9.6,87,0.00,,,0.08,WUHU21623XXSP,2013-05-03 02:00:00,
2013-05-02 21:05:00,38.8,35.3,30.21,NE,45,3.1,9.6,87,0.00,,,0.08,WUHU21623XXSP,2013-05-03 02:05:00,
2013-05-02 21:10:00,38.8,35.3,30.21,NE,45,0.0,3.1,87,0.00,,,0.08,WUHU21623XXSP,2013-05-03 02:10:00,
2013-05-02 21:15:00,38.8,35.3,30.21,NNE,22,5.1,5.1,87,0.00,,,0.08,WUHU21623XXSP,2013-05-03 02:15:00,
2013-05-02 21:20:00,38.8,35.6,30.21,NNE,22,9.2,9.2,88,0.00,,,0.08,WUHU21623XXSP,2013-05-03 02:20:00,
2013-05-02 21:25:00,38.5,34.9,30.22,NW,315,0.0,9.2,87,0.00,,,0.08,WUHU21623XXSP,2013-05-03 02:25:00,
2013-05-02 21:30:00,38.5,34.9,30.22,NNE,22,0.0,0.0,87,0.00,,,0.08,WUHU21623XXSP,2013-05-03 02:30:00,
2013-05-02 21:35:00,38.1,34.6,30.22,North,0,6.9,6.9,87,0.00,,,0.08,WUHU21623XXSP,2013-05-03 02:35:00,
2013-05-02 21:40:00,38.1,34.8,30.22,ESE,112,0.0,6.9,88,0.00,,,0.08,WUHU21623XXSP,2013-05-03 02:40:00,
2013-05-02 21:45:00,37.9,34.7,30.21,NE,45,8.7,8.7,88,0.00,,,0.08,WUHU21623XXSP,2013-05-03 02:45:00,
2013-05-02 21:50:00,37.8,34.5,30.21,NE,45,0.0,8.7,88,0.00,,,0.08,WUHU21623XXSP,2013-05-03 02:50:00,
2013-05-02 21:55:00,37.4,34.4,30.20,North,0,3.6,3.6,89,0.00,,,0.08,WUHU21623XXSP,2013-05-03 02:55:00,
2013-05-02 22:00:00,37.2,34.2,30.20,NNW,337,0.0,3.6,89,0.00,,,0.08,WUHU21623XXSP,2013-05-03 03:00:00,
2013-05-02 22:05:00,37.2,34.2,30.20,WSW,247,2.0,2.2,89,0.00,,,0.08,WUHU21623XXSP,2013-05-03 03:05:00,
2013-05-02 22:10:00,37.0,34.1,30.20,SSW,202,0.0,2.0,89,0.00,,,0.08,WUHU21623XXSP,2013-05-03 03:10:00,
2013-05-02 22:15:00,36.9,34.1,30.20,West,270,1.3,1.3,89,0.00,,,0.08,WUHU21623XXSP,2013-05-03 03:15:00,
2013-05-02 22:20:00,36.7,34.0,30.20,NNE,22,8.5,8.5,90,0.00,,,0.08,WUHU21623XXSP,2013-05-03 03:20:00,
2013-05-02 22:25:00,36.5,33.5,30.20,NNE,22,5.1,8.5,89,0.00,,,0.08,WUHU21623XXSP,2013-05-03 03:25:00,
2013-05-02 22:30:00,36.3,33.3,30.21,NE,45,5.1,5.1,89,0.00,,,0.08,WUHU21623XXSP,2013-05-03 03:30:00,
2013-05-02 22:35:00,36.3,33.3,30.20,NNE,22,5.1,5.1,89,0.00,,,0.08,WUHU21623XXSP,2013-05-03 03:35:00,
2013-05-02 22:40:00,36.3,33.6,30.20,ESE,112,2.2,5.1,89,0.00,,,0.08,WUHU21623XXSP,2013-05-03 03:40:00,
2013-05-02 22:45:00,36.3,33.3,30.19,ENE,67,0.0,2.2,89,0.00,,,0.08,WUHU21623XXSP,2013-05-03 03:45:00,
2013-05-02 22:50:00,36.1,33.4,30.19,NE,45,0.0,3.1,90,0.00,,,0.08,WUHU21623XXSP,2013-05-03 03:50:00,
2013-05-02 22:55:00,36.1,33.4,30.19,NE,45,0.0,3.1,90,0.00,,,0.08,WUHU21623XXSP,2013-05-03 03:55:00,
2013-05-02 23:00:00,36.1,33.4,30.19,SSW,202,0.0,0.0,90,0.00,,,0.08,WUHU21623XXSP,2013-05-03 04:00:00,
2013-05-02 23:01:00,36.1,33.4,30.19,SSW,202,0.0,0.0,90,0.00,,,0.08,WUHU21623XXSP,2013-05-03 04:01:00,
2013-05-02 23:06:00,36.1,33.4,30.19,West,270,0.0,9.6,90,0.00,,,0.08,WUHU21623XXSP,2013-05-03 04:06:00,
2013-05-02 23:11:00,36.1,33.4,30.19,ENE,67,2.9,9.6,90,0.00,,,0.08,WUHU21623XXSP,2013-05-03 04:11:00,
2013-05-02 23:16:00,36.0,33.3,30.18,NE,45,3.8,3.8,90,0.00,,,0.08,WUHU21623XXSP,2013-05-03 04:16:00,
2013-05-02 23:21:00,36.0,33.3,30.18,NW,315,0.0,3.8,90,0.00,,,0.08,WUHU21623XXSP,2013-05-03 04:21:00,
2013-05-02 23:26:00,36.0,33.3,30.18,WNW,292,4.9,4.9,90,0.00,,,0.08,WUHU21623XXSP,2013-05-03 04:26:00,
2013-05-02 23:31:00,36.0,33.3,30.19,WSW,247,0.0,4.9,90,0.00,,,0.08,WUHU21623XXSP,2013-05-03 04:31:00,
2013-05-02 23:36:00,36.0,33.3,30.18,NW,315,0.0,4.5,90,0.00,,,0.08,WUHU21623XXSP,2013-05-03 04:36:00,
2013-05-02 23:41:00,35.8,33.1,30.19,North,0,2.5,9.2,90,0.02,,,0.08,WUHU21623XXSP,2013-05-03 04:41:00,
2013-05-02 23:46:00,35.8,33.1,30.18,North,0,3.8,9.2,90,0.02,,,0.10,WUHU21623XXSP,2013-05-03 04:46:00,
2013-05-02 23:51:00,35.8,33.1,30.19,NE,45,1.6,4.9,90,0.02,,,0.10,WUHU21623XXSP,2013-05-03 04:51:00,
2013-05-02 23:56:00,35.8,33.1,30.18,NNW,337,5.1,5.1,90,0.02,,,0.10,WUHU21623XXSP,2013-05-03 04:56:00,